• In Uzbekistan
  • List of Countries
  • For 7 days
  • Water Temperature
  • Satellite Maps
  • Weather Map
  • Weather Widgets
  • user-avatar
    Login

    Hourly Weather Ordino

    Today, 23 February, Thursday

    Time Temperature Precipitation Wind Pressure Humidity
    00:00 +1°C° 0 mm 1 mps 631 mmHg 78%
    01:00 0°C° 0 mm 1 mps 631 mmHg 75%
    02:00 0°C° 0 mm 1 mps 630 mmHg 72%
    03:00 0°C° 0 mm 1 mps 630 mmHg 69%
    04:00 0°C° 0 mm 1 mps 630 mmHg 66%
    05:00 +1°C° 0 mm 1 mps 630 mmHg 64%
    06:00 -1°C° 0 mm 2 mps 630 mmHg 61%
    07:00 +3°C° 0 mm 1 mps 631 mmHg 59%
    08:00 +6°C° 0 mm 1 mps 632 mmHg 57%
    09:00 +9°C° 0 mm 1 mps 633 mmHg 55%
    10:00 +10°C° 0 mm 1 mps 633 mmHg 53%
    11:00 +12°C° 0 mm 2 mps 633 mmHg 52%
    12:00 +13°C° 0 mm 2 mps 634 mmHg 51%
    13:00 +13°C° 0 mm 2 mps 633 mmHg 52%
    14:00 +13°C° 0 mm 2 mps 633 mmHg 54%
    15:00 +12°C° 0 mm 1 mps 633 mmHg 55%
    16:00 +9°C° 0 mm 1 mps 631 mmHg 66%
    17:00 +6°C° 0 mm 1 mps 630 mmHg 76%
    18:00 +3°C° 0 mm 1 mps 629 mmHg 86%
    19:00 +3°C° 0 mm 1 mps 629 mmHg 88%
    20:00 +3°C° 0 mm 1 mps 629 mmHg 89%
    21:00 +2°C° 0 mm 1 mps 629 mmHg 90%
    22:00 +2°C° 0 mm 1 mps 629 mmHg 91%
    23:00 +2°C° 0 mm 1 mps 629 mmHg 91%

    Tomorrow, 24 February, Friday

    Time Temperature Precipitation Wind Pressure Humidity
    00:00 +2°C° 0 mm 1 mps 629 mmHg 91%
    01:00 +1°C° 0 mm 2 mps 629 mmHg 92%
    02:00 +1°C° 0 mm 2 mps 629 mmHg 92%
    03:00 +1°C° 0 mm 2 mps 629 mmHg 93%
    04:00 +1°C° 0 mm 2 mps 629 mmHg 93%
    05:00 +1°C° 0 mm 2 mps 629 mmHg 93%
    06:00 +1°C° 0 mm 2 mps 629 mmHg 93%
    07:00 +1°C° 0.1 mm 3 mps 629 mmHg 90%
    08:00 +1°C° 0.1 mm 3 mps 630 mmHg 87%
    09:00 +2°C° 0.1 mm 3 mps 631 mmHg 84%
    10:00 +2°C° 0.1 mm 3 mps 631 mmHg 80%
    11:00 +3°C° 0.1 mm 4 mps 631 mmHg 75%
    12:00 +3°C° 0.1 mm 4 mps 631 mmHg 71%
    13:00 +3°C° 0 mm 4 mps 631 mmHg 69%
    14:00 +3°C° 0 mm 4 mps 631 mmHg 67%
    15:00 +3°C° 0 mm 4 mps 631 mmHg 66%
    16:00 0°C° 0 mm 4 mps 631 mmHg 71%
    17:00 -1°C° 0 mm 4 mps 631 mmHg 76%
    18:00 -3°C° 0 mm 4 mps 630 mmHg 81%
    19:00 -3°C° 0 mm 4 mps 631 mmHg 80%
    20:00 -3°C° 0 mm 4 mps 631 mmHg 80%
    21:00 -4°C° 0 mm 3 mps 632 mmHg 79%
    22:00 -4°C° 0 mm 3 mps 632 mmHg 80%
    23:00 -5°C° 0 mm 3 mps 631 mmHg 80%

    Day after tomorrow, 25 February, Saturday

    Time Temperature Precipitation Wind Pressure Humidity
    00:00 -5°C° 0 mm 3 mps 631 mmHg 80%
    01:00 -5°C° 0 mm 3 mps 631 mmHg 80%
    02:00 -5°C° 0 mm 3 mps 631 mmHg 80%
    03:00 -5°C° 0 mm 2 mps 631 mmHg 79%
    04:00 -5°C° 0 mm 2 mps 631 mmHg 77%
    05:00 -5°C° 0 mm 2 mps 631 mmHg 75%
    06:00 -5°C° 0 mm 2 mps 631 mmHg 73%
    07:00 -1°C° 0 mm 1 mps 632 mmHg 64%
    08:00 +2°C° 0 mm 1 mps 634 mmHg 55%
    09:00 +4°C° 0 mm 1 mps 635 mmHg 46%
    10:00 +5°C° 0 mm 1 mps 635 mmHg 43%
    11:00 +7°C° 0 mm 1 mps 636 mmHg 41%
    12:00 +8°C° 0 mm 1 mps 636 mmHg 38%
    13:00 +7°C° 0 mm 2 mps 636 mmHg 41%
    14:00 +7°C° 0 mm 2 mps 635 mmHg 44%
    15:00 +7°C° 0 mm 2 mps 635 mmHg 47%
    16:00 +5°C° 0 mm 2 mps 634 mmHg 58%
    17:00 +3°C° 0 mm 1 mps 633 mmHg 70%
    18:00 0°C° 0 mm 1 mps 632 mmHg 82%
    19:00 0°C° 0 mm 1 mps 633 mmHg 82%
    20:00 0°C° 0 mm 1 mps 633 mmHg 82%
    21:00 0°C° 0 mm 1 mps 633 mmHg 83%
    22:00 -1°C° 0 mm 1 mps 633 mmHg 83%
    23:00 -1°C° 0 mm 1 mps 633 mmHg 83%

    26 February, Sunday

    Time Temperature Precipitation Wind Pressure Humidity
    00:00 -1°C° 0 mm 1 mps 633 mmHg 83%
    01:00 -1°C° 0 mm 1 mps 633 mmHg 83%
    02:00 -1°C° 0 mm 1 mps 632 mmHg 83%
    03:00 -1°C° 0 mm 1 mps 632 mmHg 83%
    04:00 -1°C° 0 mm 1 mps 632 mmHg 81%
    05:00 -1°C° 0 mm 1 mps 632 mmHg 79%
    06:00 -1°C° 0 mm 1 mps 632 mmHg 77%
    07:00 0°C° 0 mm 0 mps 633 mmHg 68%
    08:00 +3°C° 0 mm 0 mps 634 mmHg 59%
    09:00 +6°C° 0 mm 0 mps 636 mmHg 50%
    10:00 +7°C° 0 mm 0 mps 636 mmHg 48%
    11:00 +9°C° 0 mm 1 mps 636 mmHg 46%
    12:00 +10°C° 0 mm 1 mps 636 mmHg 43%
    13:00 +10°C° 0 mm 1 mps 636 mmHg 46%
    14:00 +9°C° 0 mm 2 mps 635 mmHg 49%
    15:00 +9°C° 0 mm 2 mps 635 mmHg 51%
    16:00 +7°C° 0 mm 1 mps 633 mmHg 64%
    17:00 +4°C° 0 mm 1 mps 632 mmHg 76%
    18:00 +1°C° 0 mm 1 mps 631 mmHg 89%
    19:00 0°C° 0 mm 0 mps 631 mmHg 89%
    20:00 -1°C° 0 mm 0 mps 631 mmHg 90%
    21:00 -1°C° 0 mm 0 mps 631 mmHg 91%
    22:00 -1°C° 0 mm 0 mps 631 mmHg 91%
    23:00 -2°C° 0 mm 0 mps 630 mmHg 91%

    27 February, Monday

    Time Temperature Precipitation Wind Pressure Humidity
    00:00 -2°C° 0 mm 0 mps 630 mmHg 91%
    01:00 -2°C° 0 mm 0 mps 630 mmHg 91%
    02:00 -2°C° 0 mm 0 mps 629 mmHg 91%
    03:00 -1°C° 0 mm 1 mps 629 mmHg 91%
    04:00 -1°C° 0 mm 1 mps 629 mmHg 89%
    05:00 -1°C° 0 mm 1 mps 629 mmHg 88%
    06:00 -1°C° 0 mm 1 mps 629 mmHg 86%
    07:00 +2°C° 0 mm 1 mps 630 mmHg 77%
    08:00 +4°C° 0 mm 1 mps 631 mmHg 67%
    09:00 +6°C° 0 mm 1 mps 632 mmHg 58%
    10:00 +7°C° 0 mm 2 mps 632 mmHg 54%
    11:00 +8°C° 0 mm 2 mps 632 mmHg 50%
    12:00 +10°C° 0 mm 2 mps 632 mmHg 46%
    13:00 +9°C° 0 mm 2 mps 632 mmHg 49%
    14:00 +9°C° 0 mm 2 mps 631 mmHg 51%
    15:00 +9°C° 0 mm 2 mps 631 mmHg 54%
    16:00 +7°C° 0 mm 2 mps 630 mmHg 66%
    17:00 +4°C° 0 mm 2 mps 630 mmHg 77%
    18:00 +3°C° 0 mm 1 mps 629 mmHg 89%
    19:00 +2°C° 0.1 mm 1 mps 629 mmHg 91%
    20:00 +2°C° 0.1 mm 1 mps 629 mmHg 92%
    21:00 +1°C° 0.1 mm 1 mps 629 mmHg 94%
    22:00 +1°C° 0 mm 1 mps 629 mmHg 94%
    23:00 +1°C° 0 mm 1 mps 629 mmHg 94%

    28 February, Tuesday

    Time Temperature Precipitation Wind Pressure Humidity
    00:00 0°C° 0 mm 0 mps 629 mmHg 95%
    01:00 0°C° 0 mm 0 mps 628 mmHg 95%
    02:00 -1°C° 0 mm 0 mps 628 mmHg 95%
    03:00 -1°C° 0 mm 0 mps 628 mmHg 95%
    04:00 -1°C° 0 mm 0 mps 628 mmHg 94%
    05:00 -1°C° 0 mm 0 mps 628 mmHg 94%
    06:00 -1°C° 0 mm 1 mps 627 mmHg 94%
    07:00 +1°C° 0 mm 1 mps 628 mmHg 85%
    08:00 +3°C° 0 mm 1 mps 629 mmHg 77%
    09:00 +5°C° 0 mm 1 mps 630 mmHg 68%
    10:00 +5°C° 0.1 mm 2 mps 630 mmHg 64%
    11:00 +6°C° 0.1 mm 2 mps 630 mmHg 61%
    12:00 +5°C° 0.1 mm 3 mps 630 mmHg 57%
    13:00 +5°C° 0.2 mm 3 mps 630 mmHg 59%
    14:00 +5°C° 0.2 mm 4 mps 629 mmHg 60%
    15:00 +5°C° 0.2 mm 4 mps 629 mmHg 61%
    16:00 +4°C° 0.2 mm 3 mps 629 mmHg 69%
    17:00 +2°C° 0.2 mm 3 mps 629 mmHg 78%
    18:00 +2°C° 0.2 mm 2 mps 629 mmHg 86%
    19:00 +1°C° 0.3 mm 2 mps 629 mmHg 87%
    20:00 +1°C° 0.3 mm 2 mps 630 mmHg 88%
    21:00 +1°C° 0.3 mm 2 mps 630 mmHg 89%
    22:00 -1°C° 0 mm 2 mps 630 mmHg 90%
    23:00 -2°C° 0 mm 2 mps 630 mmHg 90%
    Show more